Location: Cahoon Acres
(40.8736°N, 111.8994°W)
Time: 11:38:11
(UTC+00:00)

SR - Pass Details

Date: 12 June 2020
Orbit: 583 x 872 km, 66.7° (Epoch: 14 July)

Event Time Altitude Azimuth Distance (km) Brightness Sun altitude
Rises 04:06:44 0° 335° (NNW) 2,855 ? -10.8°
Reaches altitude 10° 04:09:04 10° 341° (NNW) 1,928 ? -11.1°
Maximum altitude 04:13:14 48° 56° (ENE) 763 ? -11.7°
Enters shadow 04:16:11 18° 126° (SE) 1,466 ? -12.1°
Drops below altitude 10° 04:17:21 10° 132° (SE) 1,904 - -12.2°
Sets 04:19:38 0° 138° (SE) 2,814 - -12.5°
